This demonstration page uses our WeatherBlox Daily Observations layout. Learn more.

Left ArrowRight Arrow

38.20091, -84.87328

Hourly Observations for August 12, 2017

Temp ( °F °C ) Dew Point ( °F °C ) Humidity (%) Winds ( mph kmh ) Pressure ( in mb ) Visibility ( mi km ) Precip ( " mm )
12:53 am 00:53 Mostly Clear 71 21.7 67 19.4 87 87 Calm 29.95 1014 8 13 0.00 0.00
1:53 am 01:53 Cloudy 71 21.7 67 19.4 87 87 Calm 29.94 1014 8 13 0.00 0.00
2:53 am 02:53 Cloudy 72 22.2 67 19.4 84 84 Calm 29.93 1014 9 14 0.00 0.00
3:53 am 03:53 Clear with Mist and Fog 70 21.1 67 19.4 90 90 Calm 29.93 1014 5 8 0.00 0.00
4:53 am 04:53 Clear with Mist and Fog 68 20 65 18.3 90 90 Calm 29.93 1013 6 10 0.00 0.00
5:53 am 05:53 Mostly Cloudy with Mist and Fog 68 20 65 18.3 90 90 Calm 29.93 1014 6 10 0.00 0.00
6:48 am 06:48 Cloudy with Mist and Fog 68 20 64 18 88 88 Calm 29.94 1014 6 10 0.00 0.00
6:53 am 06:53 Cloudy with Mist and Fog 68 20 65 18.3 90 90 NNW 3 6 29.95 1014 6 10 0.00 0.00
7:53 am 07:53 Cloudy with Mist and Fog 70 21.1 66 18.9 87 87 Calm 29.96 1014 6 10 0.00 0.00
8:53 am 08:53 Mostly Sunny 72 22.2 66 18.9 82 82 N 3 6 29.96 1014 9 14 0.00 0.00
9:53 am 09:53 Sunny 75 23.9 66 18.9 74 74 E 3 6 29.95 1014 10 16 0.00 0.00
10:53 am 10:53 Mostly Sunny 79 26.1 67 19.4 67 67 NW 5 7 29.96 1015 10 16 0.00 0.00
11:53 am 11:53 Sunny 80 26.7 66 18.9 62 62 NNE 6 9 29.96 1015 10 16 0.00 0.00
12:53 pm 12:53 Mostly Cloudy 82 27.8 66 18.9 58 58 N 5 7 29.96 1015 10 16 0.00 0.00
1:53 pm 13:53 Mostly Cloudy 82 27.8 65 18.3 56 56 N 6 9 29.96 1015 10 16 0.00 0.00
2:53 pm 14:53 Partly Cloudy 84 28.9 64 17.8 51 51 NNW 9 15 29.95 1014 10 16 0.00 0.00
3:53 pm 15:53 Partly Cloudy 83 28.3 61 16.1 48 48 NW 8 13 29.95 1014 10 16 0.00 0.00
4:53 pm 16:53 Mostly Sunny 85 29.4 60 15.6 43 43 NNW 12 19 29.94 1014 10 16 0.00 0.00
5:53 pm 17:53 Sunny 83 28.3 57 13.9 41 41 NW 9 15 29.94 1014 10 16 0.00 0.00
6:53 pm 18:53 Sunny 82 27.8 58 14.4 44 44 N 9 15 29.94 1014 10 16 0.00 0.00
7:53 pm 19:53 Sunny 78 25.6 57 13.9 48 48 NNW 8 13 29.95 1014 10 16 0.00 0.00
8:53 pm 20:53 Clear 74 23.3 58 14.4 57 57 NNW 6 9 29.96 1015 10 16 0.00 0.00
9:53 pm 21:53 Clear 70 21.1 58 14.4 66 66 NNW 3 6 29.98 1015 10 16 0.00 0.00
10:53 pm 22:53 Clear 68 20 59 15 73 73 NNW 3 6 29.99 1016 10 16 0.00 0.00
11:53 pm 23:53 Clear 66 18.9 58 14.4 75 75 Calm 29.99 1016 10 16 0.00 0.00

Powered by AerisWeather